| time (UTC) | temp F | wind direction | speed MPH | gust MPH | rain 1hr in | rain 24hr in | rain mn in | humidity % | barometer mb |
| 20260506013758 | 74 | 90 | 1.0 | 1.0 | 0.00 | 0.00 | 0.00 | 50 | 1013.4 |
| 20260506013252 | 74 | 338 | 0.0 | 0.0 | 0.00 | 0.00 | 0.00 | 49 | 1013.2 |
| 20260506012747 | 75 | 90 | 0.0 | 0.0 | 0.00 | 0.00 | 0.00 | 48 | 1013.2 |
| 20260506011727 | 80 | 225 | 0.0 | 0.0 | 0.00 | 0.00 | 0.00 | 47 | 1013.2 |
| 20260505214621 | 79 | 180 | 1.0 | 1.0 | 0.00 | 0.00 | 0.00 | 48 | 1014.3 |
| 20260505213611 | 78 | 158 | 1.0 | 1.0 | 0.00 | 0.00 | 0.00 | 50 | 1014.4 |
| 20260505213106 | 79 | 113 | 1.0 | 1.0 | 0.00 | 0.00 | 0.00 | 50 | 1014.4 |
| 20260505212601 | 79 | 270 | 1.0 | 1.0 | 0.00 | 0.00 | 0.00 | 49 | 1014.4 |
| 20260505212056 | 78 | 270 | 2.0 | 2.0 | 0.00 | 0.00 | 0.00 | 51 | 1014.5 |
| 20260505210912 | 79 | 45 | 1.0 | 1.0 | 0.00 | 0.00 | 0.00 | 53 | 1014.6 |
| 20260505210407 | 78 | 68 | 1.0 | 1.0 | 0.00 | 0.00 | 0.00 | 52 | 1014.6 |
| 20260505205352 | 76 | 135 | 2.0 | 2.0 | 0.00 | 0.00 | 0.00 | 53 | 1014.8 |
| 20260505204847 | 77 | 135 | 1.0 | 1.0 | 0.00 | 0.00 | 0.00 | 52 | 1014.8 |
| 20260505204342 | 76 | 315 | 2.0 | 2.0 | 0.00 | 0.00 | 0.00 | 54 | 1014.8 |
| 20260505203845 | 77 | 180 | 1.0 | 1.0 | 0.00 | 0.00 | 0.00 | 52 | 1014.8 |
| 20260505191039 | 72 | 248 | 2.0 | 2.0 | 0.00 | 0.00 | 0.00 | 59 | 1015.6 |
| 20260505190534 | 71 | 0 | 1.0 | 1.0 | 0.00 | 0.00 | 0.00 | 59 | 1015.6 |
| 20260505185524 | 72 | 270 | 3.0 | 3.0 | 0.00 | 0.00 | 0.00 | 59 | 1015.7 |
| 20260505185017 | 70 | 158 | 1.0 | 1.0 | 0.00 | 0.00 | 0.00 | 60 | 1015.7 |
| 20260505184509 | 71 | 293 | 1.0 | 1.0 | 0.00 | 0.00 | 0.00 | 61 | 1015.8 |
| 20260505184006 | 71 | 0 | 1.0 | 1.0 | 0.00 | 0.00 | 0.00 | 63 | 1015.8 |
| 20260505183459 | 70 | 158 | 2.0 | 2.0 | 0.00 | 0.00 | 0.00 | 63 | 1015.8 |
| 20260505182444 | 70 | 225 | 2.0 | 2.0 | 0.00 | 0.00 | 0.00 | 62 | 1015.8 |
| 20260505181942 | 70 | 23 | 2.0 | 2.0 | 0.00 | 0.00 | 0.00 | 62 | 1015.8 |
| 20260505181434 | 69 | 113 | 1.0 | 1.0 | 0.00 | 0.00 | 0.00 | 62 | 1015.8 |
| 20260505180931 | 69 | 180 | 2.0 | 2.0 | 0.00 | 0.00 | 0.00 | 62 | 1015.9 |
| 20260505180425 | 68 | 293 | 1.0 | 1.0 | 0.00 | 0.00 | 0.00 | 63 | 1015.9 |
| 20260505175409 | 68 | 158 | 1.0 | 1.0 | 0.00 | 0.00 | 0.00 | 64 | 1016.0 |
| 20260505174906 | 68 | 135 | 2.0 | 2.0 | 0.00 | 0.00 | 0.00 | 63 | 1016.0 |
| 20260505174359 | 68 | 45 | 2.0 | 2.0 | 0.00 | 0.00 | 0.00 | 65 | 1016.0 |
| 20260505172841 | 67 | 0 | 0.0 | 0.0 | 0.00 | 0.00 | 0.00 | 66 | 1015.9 |
| 20260505172334 | 66 | 113 | 1.0 | 1.0 | 0.00 | 0.00 | 0.00 | 65 | 1016.1 |
| 20260505171829 | 65 | 113 | 2.0 | 2.0 | 0.00 | 0.00 | 0.00 | 66 | 1016.1 |
| 20260505171319 | 63 | 113 | 0.0 | 0.0 | 0.00 | 0.00 | 0.00 | 70 | 1016.2 |
| 20260505170815 | 62 | 68 | 0.0 | 0.0 | 0.00 | 0.00 | 0.00 | 71 | 1016.2 |
| 20260505165259 | 60 | 225 | 0.0 | 0.0 | 0.00 | 0.00 | 0.00 | 76 | 1016.4 |
| 20260505164751 | 61 | 248 | 0.0 | 0.0 | 0.00 | 0.00 | 0.00 | 76 | 1016.4 |
| 20260505164245 | 56 | 338 | 0.0 | 0.0 | 0.00 | 0.00 | 0.00 | 88 | 1016.4 |
| 20260505031620 | 67 | 158 | 0.0 | 0.0 | 0.00 | 0.00 | 0.00 | 65 | 1010.7 |
| 20260505030610 | 68 | 270 | 0.0 | 0.0 | 0.00 | 0.00 | 0.00 | 63 | 1010.4 |
| 20260505025555 | 69 | 113 | 2.0 | 2.0 | 0.00 | 0.00 | 0.00 | 63 | 1010.3 |
| 20260505025036 | 69 | 225 | 1.0 | 1.0 | 0.00 | 0.00 | 0.00 | 62 | 1010.3 |
| 20260505024022 | 70 | 225 | 1.0 | 1.0 | 0.00 | 0.00 | 0.00 | 62 | 1010.1 |
| 20260505023515 | 70 | 113 | 0.0 | 0.0 | 0.00 | 0.00 | 0.00 | 60 | 1009.9 |
| 20260505023012 | 71 | 0 | 0.0 | 0.0 | 0.00 | 0.00 | 0.00 | 60 | 1009.9 |
| 20260505021943 | 71 | 90 | 1.0 | 1.0 | 0.00 | 0.00 | 0.00 | 59 | 1009.7 |
| 20260505021435 | 72 | 180 | 1.0 | 1.0 | 0.00 | 0.00 | 0.00 | 57 | 1009.7 |
| 20260505020925 | 72 | 135 | 2.0 | 2.0 | 0.00 | 0.00 | 0.00 | 57 | 1009.7 |
| 20260505020420 | 73 | 225 | 1.0 | 1.0 | 0.00 | 0.00 | 0.00 | 58 | 1009.7 |
| 20260505015411 | 73 | 225 | 1.0 | 1.0 | 0.00 | 0.00 | 0.00 | 57 | 1009.7 |
| 20260505014845 | 73 | 203 | 0.0 | 0.0 | 0.00 | 0.00 | 0.00 | 56 | 1009.9 |
| 20260505014340 | 74 | 248 | 0.0 | 0.0 | 0.00 | 0.00 | 0.00 | 55 | 1009.9 |